St. Charles, IL

5:18 PM CDT on September 26, 2017 (GMT -0500)
Saint Charles County Smartt

Weather History for KSET - January, 2013

Change the Weather History Date:

Wednesday, January 16, 2013

  Actual Average (KSTL) Record (KSTL)
Temperature  
Mean Temperature 28 °F -  
Max Temperature 39 °F 39 °F 71 °F (1990)
Min Temperature 18 °F 20 °F -14 °F (1977)
Degree Days  
Heating Degree Days 36    
Moisture  
Dew Point 20 °F    
Average Humidity 72    
Maximum Humidity 89    
Minimum Humidity 47    
Precipitation  
Precipitation 0.00 in - - ()
Sea Level Pressure  
Sea Level Pressure 30.12 in    
Wind  
Wind Speed 5 mph (WSW)    
Max Wind Speed 13 mph    
Max Gust Speed -    
Visibility 9 miles    
Events      
Averages and records for this station are not official NWS values.
T = Trace of Precipitation, MM = Missing Value Source: NWS Daily Summary

Daily Weather History Graph

Daily Weather History Graph

Search for Another Location

Airport or City:

Trip Planner

Search our weather history database for the weather conditions in past years. The results will help you decide how hot, cold, wet, or windy it might be!

Date:

Astronomy

Jan. 16, 2013 Rise Set
Actual Time 7:18 AM CST 5:05 PM CST
Civil Twilight 6:49 AM CST 5:34 PM CST
Nautical Twilight 6:16 AM CST 6:07 PM CST
Astronomical Twilight 5:44 AM CST 6:39 PM CST
Moon 9:58 AM CST (1/16) 10:53 PM CST (1/16)
Length of Visible Light 10h 45m
Length of Day
9h 46m
Waxing Crescent, 28% of the Moon is Illuminated
Jan 16
Waxing Crescent
Jan 18
First Quarter
Jan 26
Full
Feb 3
Last Quarter
Feb 10
New

Hourly Weather History & Observations

Time (CST) Temp. Windchill Dew Point Humidity Pressure Visibility Wind Dir Wind Speed Gust Speed Precip Events Conditions
12:54 AM 24.1 °F 18.2 °F 19.9 °F 84% 30.17 in 10.0 mi NW 4.6 mph - N/A   Mostly Cloudy
1:54 AM 24.1 °F 19.7 °F 19.9 °F 84% 30.17 in 9.0 mi WNW 3.5 mph - N/A   Clear
2:54 AM 23.0 °F 18.4 °F 19.0 °F 85% 30.17 in 9.0 mi WNW 3.5 mph - N/A   Clear
3:54 AM 21.9 °F 14.5 °F 19.0 °F 89% 30.15 in 8.0 mi WNW 5.8 mph - N/A   Clear
4:54 AM 21.9 °F 15.7 °F 19.0 °F 89% 30.14 in 8.0 mi West 4.6 mph - N/A   Clear
5:54 AM 18.0 °F 11.1 °F 15.1 °F 88% 30.13 in 8.0 mi SW 4.6 mph - N/A   Clear
6:54 AM 18.0 °F 8.7 °F 14.0 °F 84% 30.15 in 7.0 mi SSW 6.9 mph - N/A   Clear
7:54 AM 18.0 °F - 15.1 °F 88% 30.16 in 7.0 mi Calm Calm - N/A   Clear
8:54 AM 21.9 °F 17.2 °F 19.0 °F 89% 30.16 in 8.0 mi SSW 3.5 mph - N/A   Clear
9:54 AM 27.0 °F 19.5 °F 16.0 °F 63% 30.15 in 10.0 mi WSW 6.9 mph - N/A   Clear
10:54 AM 30.9 °F 22.8 °F 18.0 °F 59% 30.12 in 10.0 mi SW 9.2 mph - N/A   Clear
11:54 AM 34.0 °F 27.2 °F 19.0 °F 54% 30.09 in 10.0 mi SW 8.1 mph - N/A   Clear
12:54 PM 37.9 °F 30.0 °F 19.0 °F 47% 30.07 in 10.0 mi WSW 12.7 mph - N/A   Clear
2:54 PM 39.9 °F 32.9 °F 21.0 °F 47% 30.04 in 10.0 mi West 11.5 mph - N/A   Clear
3:54 PM 39.9 °F 33.9 °F 23.0 °F 51% 30.04 in 10.0 mi WSW 9.2 mph - N/A   Clear
4:54 PM 37.9 °F 32.7 °F 23.0 °F 55% 30.06 in 10.0 mi WSW 6.9 mph - N/A   Clear
5:54 PM 37.9 °F 30.9 °F 23.0 °F 55% 30.09 in 10.0 mi WSW 10.4 mph - N/A   Partly Cloudy
6:54 PM 36.0 °F 31.1 °F 23.0 °F 59% 30.11 in 10.0 mi WSW 5.8 mph - N/A   Scattered Clouds
7:54 PM 33.1 °F 30.0 °F 25.0 °F 72% 30.12 in 10.0 mi WSW 3.5 mph - N/A   Clear
8:54 PM 30.9 °F 27.5 °F 24.1 °F 76% 30.12 in 10.0 mi West 3.5 mph - N/A   Clear
9:54 PM 30.9 °F - 24.1 °F 76% 30.13 in 10.0 mi Calm Calm - N/A   Clear
10:54 PM 28.0 °F - 25.0 °F 88% 30.12 in 10.0 mi Calm Calm - N/A   Clear
11:54 PM 30.9 °F 27.5 °F 27.0 °F 85% 30.14 in 10.0 mi SW 3.5 mph - N/A   Overcast